Location: Borea
(45.6167°N, 23.0167°E)
Time: 01:38:53
(UTC+00:00)

OPS 8068 - Pass Details

Date: 23 February 2024
Orbit: 631 x 963 km, 98.3° (Epoch: 13 April)

Event Time Altitude Azimuth Distance (km) Brightness Sun altitude
Rises 02:44:09 0° 153° (SSE) 2,910 ? -27.5°
Reaches altitude 10° 02:46:20 10° 149° (SSE) 2,011 ? -27.1°
Maximum altitude 02:50:34 55° 72° (ENE) 776 ? -26.4°
Drops below altitude 10° 02:55:01 10° 354° (N) 2,108 ? -25.7°
Sets 02:57:20 0° 351° (N) 3,066 ? -25.3°
